BPX272 KGAD-KRYY

Flight info

Callsign BPX272
Flight time 0h 52m
Altitude 3500
Route KGAD KRMG KRYY
Aircraft C172/L-V/N

Departure

Time 2026-05-04 17:21
Airport Northeast Alabama Regional Airport (KGAD)

Arrival

Time 2026-05-04 18:13
Airport Cobb County International Airport-McCollum Field (KRYY)
Time Latitude Longitude Altitude Speed Heading
2026-05-04 17:19 33.97253 -86.08236 559 ft 0 kts
2026-05-04 17:19 33.97261 -86.08235 549 ft 5 kts
2026-05-04 17:20 33.97345 -86.08197 548 ft 6 kts 16°
2026-05-04 17:20 33.97445 -86.08161 548 ft 10 kts
2026-05-04 17:20 33.97462 -86.08232 551 ft 20 kts 243°
2026-05-04 17:21 33.97068 -86.09063 714 ft 74 kts 240°
2026-05-04 17:21 33.96577 -86.10133 1233 ft 76 kts 245°
2026-05-04 17:22 33.96138 -86.10464 1536 ft 82 kts 180°
2026-05-04 17:22 33.95589 -86.10224 1786 ft 89 kts 143°
2026-05-04 17:23 33.96069 -86.08320 2548 ft 97 kts 54°
2026-05-04 17:23 33.96458 -86.07644 2942 ft 106 kts 49°
2026-05-04 17:23 33.97372 -86.06169 3252 ft 121 kts 65°
2026-05-04 17:24 33.97555 -86.05179 3415 ft 121 kts 89°
2026-05-04 17:24 33.98620 -86.02394 3458 ft 115 kts 44°
2026-05-04 17:25 33.99224 -86.01765 3539 ft 119 kts 36°
2026-05-04 17:25 34.00543 -86.00568 3432 ft 119 kts 41°
2026-05-04 17:26 34.01381 -85.98789 3452 ft 125 kts 63°
2026-05-04 17:26 34.02465 -85.96115 3448 ft 112 kts 64°
2026-05-04 17:27 34.03181 -85.94370 3441 ft 116 kts 63°
2026-05-04 17:27 34.03894 -85.92645 3438 ft 112 kts 63°
2026-05-04 17:28 34.04542 -85.91063 3455 ft 104 kts 63°
2026-05-04 17:29 34.05638 -85.88439 3489 ft 116 kts 60°
2026-05-04 17:29 34.06672 -85.85975 3425 ft 113 kts 62°
2026-05-04 17:30 34.07763 -85.83352 3447 ft 124 kts 64°
2026-05-04 17:31 34.08538 -85.81474 3442 ft 122 kts 62°
2026-05-04 17:31 34.09560 -85.79034 3477 ft 107 kts 64°
2026-05-04 17:32 34.10276 -85.77259 3439 ft 116 kts 64°
2026-05-04 17:33 34.11303 -85.74693 3451 ft 115 kts 65°
2026-05-04 17:33 34.11650 -85.73791 3451 ft 120 kts 66°
2026-05-04 17:34 34.12706 -85.71107 3439 ft 112 kts 67°
2026-05-04 17:34 34.13078 -85.70219 3457 ft 124 kts 64°
2026-05-04 17:35 34.14249 -85.67452 3427 ft 110 kts 63°
2026-05-04 17:35 34.14908 -85.65887 3433 ft 102 kts 63°
2026-05-04 17:35 34.15237 -85.65099 3488 ft 112 kts 61°
2026-05-04 17:36 34.15588 -85.64276 3487 ft 106 kts 59°
2026-05-04 17:36 34.15940 -85.63433 3479 ft 121 kts 65°
2026-05-04 17:36 34.16292 -85.62508 3493 ft 116 kts 65°
2026-05-04 17:36 34.16642 -85.61587 3484 ft 127 kts 65°
2026-05-04 17:37 34.17001 -85.60671 3464 ft 114 kts 65°
2026-05-04 17:37 34.17327 -85.59829 3470 ft 108 kts 65°
2026-05-04 17:37 34.17535 -85.59289 3467 ft 105 kts 65°
2026-05-04 17:37 34.17848 -85.58491 3506 ft 107 kts 65°
2026-05-04 17:38 34.18298 -85.57327 3473 ft 113 kts 66°
2026-05-04 17:38 34.18621 -85.56488 3511 ft 111 kts 65°
2026-05-04 17:38 34.18960 -85.55593 3471 ft 117 kts 64°
2026-05-04 17:38 34.19333 -85.54728 3479 ft 119 kts 62°
2026-05-04 17:39 34.20003 -85.53200 3485 ft 126 kts 62°
2026-05-04 17:39 34.20400 -85.52315 3472 ft 117 kts 62°
2026-05-04 17:39 34.20767 -85.51476 3467 ft 110 kts 63°
2026-05-04 17:40 34.21121 -85.50676 3467 ft 106 kts 62°
2026-05-04 17:40 34.21451 -85.49881 3463 ft 109 kts 63°
2026-05-04 17:40 34.21808 -85.49011 3452 ft 118 kts 66°
2026-05-04 17:40 34.22152 -85.48136 3507 ft 122 kts 64°
2026-05-04 17:41 34.22506 -85.47213 3498 ft 116 kts 66°
2026-05-04 17:41 34.22849 -85.46340 3484 ft 112 kts 65°
2026-05-04 17:41 34.23175 -85.45509 3474 ft 107 kts 64°
2026-05-04 17:41 34.23493 -85.44690 3480 ft 107 kts 66°
2026-05-04 17:42 34.23807 -85.43884 3476 ft 105 kts 65°
2026-05-04 17:42 34.24120 -85.43095 3473 ft 102 kts 64°
2026-05-04 17:42 34.24430 -85.42323 3511 ft 103 kts 68°
2026-05-04 17:42 34.24752 -85.41513 3493 ft 108 kts 65°
2026-05-04 17:43 34.25070 -85.40708 3548 ft 107 kts 65°
2026-05-04 17:43 34.25412 -85.39845 3481 ft 114 kts 65°
2026-05-04 17:43 34.25741 -85.39004 3482 ft 108 kts 65°
2026-05-04 17:43 34.26059 -85.38206 3475 ft 106 kts 65°
2026-05-04 17:44 34.26375 -85.37415 3479 ft 104 kts 65°
2026-05-04 17:44 34.26682 -85.36637 3482 ft 102 kts 65°
2026-05-04 17:44 34.26988 -85.35875 3483 ft 97 kts 65°
2026-05-04 17:44 34.27285 -85.35146 3496 ft 98 kts 64°
2026-05-04 17:45 34.27601 -85.34352 3504 ft 111 kts 65°
2026-05-04 17:45 34.27941 -85.33494 3498 ft 114 kts 65°
2026-05-04 17:45 34.28286 -85.32625 3567 ft 117 kts 63°
2026-05-04 17:45 34.28640 -85.31707 3514 ft 123 kts 65°
2026-05-04 17:46 34.29003 -85.30791 3500 ft 119 kts 65°
2026-05-04 17:46 34.29388 -85.29863 3485 ft 124 kts 64°
2026-05-04 17:46 34.29807 -85.28973 3481 ft 124 kts 57°
2026-05-04 17:46 34.30193 -85.28076 3563 ft 122 kts 61°
2026-05-04 17:47 34.30575 -85.27149 3464 ft 125 kts 64°
2026-05-04 17:47 34.30983 -85.26157 3405 ft 139 kts 65°
2026-05-04 17:47 34.31403 -85.25141 3313 ft 132 kts 65°
2026-05-04 17:47 34.31821 -85.24134 3138 ft 137 kts 65°
2026-05-04 17:48 34.32053 -85.23006 2956 ft 138 kts 95°
2026-05-04 17:48 34.31938 -85.21880 2626 ft 126 kts 102°
2026-05-04 17:48 34.31814 -85.20877 2369 ft 116 kts 101°
2026-05-04 17:48 34.31725 -85.19938 2139 ft 110 kts 99°
2026-05-04 17:49 34.31653 -85.19056 1950 ft 104 kts 97°
2026-05-04 17:49 34.31607 -85.18185 1714 ft 104 kts 95°
2026-05-04 17:49 34.31601 -85.17315 1570 ft 104 kts 92°
2026-05-04 17:49 34.31780 -85.16528 1532 ft 98 kts 52°
2026-05-04 17:50 34.32321 -85.16123 1284 ft 89 kts
2026-05-04 17:50 34.32912 -85.16080 1214 ft 87 kts
2026-05-04 17:50 34.33480 -85.16025 1080 ft 78 kts
2026-05-04 17:50 34.34047 -85.15961 791 ft 84 kts
2026-05-04 17:51 34.34601 -85.15913 640 ft 71 kts
2026-05-04 17:51 34.35030 -85.15869 636 ft 64 kts
2026-05-04 17:51 34.35593 -85.15809 696 ft 90 kts
2026-05-04 17:51 34.36203 -85.15741 965 ft 86 kts
2026-05-04 17:52 34.36814 -85.15692 1223 ft 89 kts 358°
2026-05-04 17:52 34.37434 -85.15653 1471 ft 90 kts
2026-05-04 17:52 34.37963 -85.15248 1665 ft 96 kts 64°
2026-05-04 17:52 34.37980 -85.14467 1843 ft 94 kts 118°
2026-05-04 17:53 34.37656 -85.13802 2022 ft 87 kts 125°
2026-05-04 17:53 34.37356 -85.13205 2185 ft 89 kts 128°
2026-05-04 17:53 34.36966 -85.12579 2489 ft 94 kts 135°
2026-05-04 17:53 34.36545 -85.11978 2924 ft 90 kts 134°
2026-05-04 17:54 34.36129 -85.11374 3076 ft 98 kts 135°
2026-05-04 17:54 34.35680 -85.10717 3186 ft 103 kts 134°
2026-05-04 17:54 34.35177 -85.09994 3448 ft 118 kts 134°
2026-05-04 17:54 34.34658 -85.09229 3497 ft 121 kts 131°
2026-05-04 17:55 34.34152 -85.08389 3558 ft 130 kts 131°
2026-05-04 17:55 34.33596 -85.07484 3503 ft 129 kts 130°
2026-05-04 17:55 34.33075 -85.06649 3510 ft 122 kts 131°
2026-05-04 17:55 34.32577 -85.05839 3494 ft 116 kts 131°
2026-05-04 17:56 34.32115 -85.05069 3487 ft 111 kts 128°
2026-05-04 17:56 34.31664 -85.04325 3488 ft 109 kts 130°
2026-05-04 17:56 34.31213 -85.03594 3489 ft 109 kts 129°
2026-05-04 17:56 34.30765 -85.02862 3488 ft 107 kts 130°
2026-05-04 17:57 34.30328 -85.02129 3581 ft 111 kts 130°
2026-05-04 17:57 34.29848 -85.01338 3539 ft 119 kts 130°
2026-05-04 17:57 34.29351 -85.00542 3496 ft 115 kts 129°
2026-05-04 17:57 34.28883 -84.99778 3470 ft 111 kts 130°
2026-05-04 17:58 34.28431 -84.99034 3467 ft 109 kts 130°
2026-05-04 17:58 34.27981 -84.98293 3501 ft 110 kts 130°
2026-05-04 17:58 34.27527 -84.97559 3471 ft 109 kts 130°
2026-05-04 17:58 34.27071 -84.96821 3469 ft 107 kts 130°
2026-05-04 17:59 34.26639 -84.96108 3483 ft 106 kts 129°
2026-05-04 17:59 34.26209 -84.95393 3482 ft 105 kts 129°
2026-05-04 17:59 34.25352 -84.93982 3481 ft 103 kts 130°
2026-05-04 18:00 34.24926 -84.93284 3482 ft 103 kts 129°
2026-05-04 18:00 34.24502 -84.92587 3484 ft 102 kts 129°
2026-05-04 18:00 34.24093 -84.91896 3483 ft 100 kts 129°
2026-05-04 18:00 34.23695 -84.91220 3488 ft 98 kts 130°
2026-05-04 18:01 34.23303 -84.90558 3485 ft 95 kts 129°
2026-05-04 18:01 34.22920 -84.89920 3488 ft 94 kts 129°
2026-05-04 18:01 34.22475 -84.89247 3556 ft 116 kts 134°
2026-05-04 18:02 34.21402 -84.87642 3568 ft 122 kts 133°
2026-05-04 18:02 34.20876 -84.86840 3505 ft 119 kts 131°
2026-05-04 18:02 34.20369 -84.86068 3498 ft 120 kts 132°
2026-05-04 18:02 34.19858 -84.85289 3499 ft 116 kts 133°
2026-05-04 18:03 34.19326 -84.84591 3496 ft 111 kts 137°
2026-05-04 18:03 34.18792 -84.83903 3491 ft 114 kts 137°
2026-05-04 18:03 34.18251 -84.83207 3493 ft 118 kts 137°
2026-05-04 18:03 34.17691 -84.82491 3500 ft 115 kts 137°
2026-05-04 18:04 34.17149 -84.81799 3523 ft 119 kts 137°
2026-05-04 18:04 34.16573 -84.81067 3495 ft 117 kts 137°
2026-05-04 18:04 34.15526 -84.79725 3504 ft 111 kts 137°
2026-05-04 18:05 34.14971 -84.79022 3480 ft 121 kts 136°
2026-05-04 18:05 34.14395 -84.78284 3500 ft 126 kts 136°
2026-05-04 18:05 34.13808 -84.77543 3495 ft 118 kts 136°
2026-05-04 18:05 34.13250 -84.76844 3490 ft 113 kts 136°
2026-05-04 18:06 34.12220 -84.75425 3520 ft 115 kts 132°
2026-05-04 18:06 34.11725 -84.74682 3511 ft 118 kts 128°
2026-05-04 18:06 34.11185 -84.73885 3485 ft 122 kts 131°
2026-05-04 18:07 34.10673 -84.73120 3497 ft 114 kts 131°
2026-05-04 18:07 34.10174 -84.72378 3496 ft 113 kts 131°
2026-05-04 18:07 34.09685 -84.71636 3495 ft 115 kts 134°
2026-05-04 18:07 34.09196 -84.70891 3489 ft 111 kts 132°
2026-05-04 18:08 34.08701 -84.70150 3501 ft 120 kts 131°
2026-05-04 18:08 34.08192 -84.69382 3553 ft 116 kts 130°
2026-05-04 18:08 34.07679 -84.68620 3410 ft 112 kts 132°
2026-05-04 18:08 34.07210 -84.67918 3321 ft 105 kts 131°
2026-05-04 18:09 34.06251 -84.66494 3043 ft 114 kts 133°
2026-05-04 18:09 34.05238 -84.64987 2717 ft 120 kts 134°
2026-05-04 18:10 34.04703 -84.64237 2421 ft 115 kts 129°
2026-05-04 18:10 34.04208 -84.63494 2344 ft 110 kts 132°
2026-05-04 18:10 34.03704 -84.62798 2190 ft 109 kts 134°
2026-05-04 18:10 34.03307 -84.62024 2084 ft 113 kts 109°
2026-05-04 18:11 34.03232 -84.61094 2134 ft 110 kts 89°
2026-05-04 18:11 34.03268 -84.60156 2127 ft 113 kts 89°
2026-05-04 18:11 34.03311 -84.59198 2117 ft 113 kts 89°
2026-05-04 18:11 34.03348 -84.58288 2001 ft 107 kts 89°
2026-05-04 18:12 34.03170 -84.57459 1828 ft 102 kts 134°
2026-05-04 18:12 34.02548 -84.57135 1702 ft 95 kts 174°
2026-05-04 18:12 34.01906 -84.57056 1527 ft 91 kts 188°
2026-05-04 18:12 34.01442 -84.57391 1409 ft 71 kts 244°
2026-05-04 18:13 34.01345 -84.57948 1281 ft 68 kts 280°
2026-05-04 18:13 34.01336 -84.58518 1103 ft 67 kts 276°
2026-05-04 18:13 34.01324 -84.59375 1010 ft 34 kts 269°
2026-05-04 18:14 34.01319 -84.59617 1013 ft 22 kts 261°
2026-05-04 18:14 34.01237 -84.59681 1016 ft 12 kts 234°
2026-05-04 18:14 34.01233 -84.59760 1018 ft 7 kts 268°
2026-05-04 18:15 34.01231 -84.60002 1026 ft 18 kts 272°
2026-05-04 18:15 34.01208 -84.60208 1031 ft 8 kts 285°
2026-05-04 18:15 34.01204 -84.60218 1031 ft 1 kts 209°
2026-05-04 18:16 34.01201 -84.60219 1031 ft 0 kts 184°